Location: Aressy
(43.2833°N, 0.3167°W)
Time: 20:37:43
(UTC+00:00)

Cosmos 1809 Rocket - Pass Details

Date: 28 January 2021
Orbit: 941 x 963 km, 82.5° (Epoch: 03 March)

Event Time Altitude Azimuth Distance (km) Brightness Sun altitude
Rises 19:00:12 0° 177° (S) 3,605 7.5 -20.4°
Reaches altitude 10° 19:02:41 10° 175° (S) 2,667 6.8 -20.9°
Maximum altitude 19:08:43 67° 94° (E) 1,034 4.3 -22.0°
Drops below altitude 10° 19:14:50 10° 14° (NNE) 2,699 6.6 -23.1°
Sets 19:17:21 0° 12° (NNE) 3,652 7.4 -23.6°
